[[{"header":{"parameterUnit":"m.s-1","parameterCategory":1,"la1":30.2991,"la2":30.254,"lo1":-89.0895,"lo2":-89.0444,"dy":0.0017,"dx":0.0017,"nx":28,"ny":28,"refTime":"2024-09-02T09:00:00:Z","depth":0,"parameterNumber":2,"parameterNumberName":"U-component_of_WINDS"},"data":[0,0,0,0,0,0,0,0,0,0,0,0,0,0,0,0,0,0,0,0,0,0,0,0,0,0,0,0,0,0,0,0,0,0,0,0,0,0,0,0,0,0,0,0,0,0,0,0,0,0,0,0,0,0,0,0,0,0,0.2323,0.2323,0,0.237,0.237,0.2371,0.2411,0.2411,0.2412,0.2412,0.2459,0.246,0.2461,0,0,0,0,0,0,0,0,0,0,0,0,0,0.2269,0.227,0.2323,0.2323,0.2324,0.2369,0.237,0.2371,0.2411,0.2411,0.2412,0.2413,0.2459,0.246,0.2461,0,0,0,0,0,0,0,0,0,0,0,0,0,0.2302,0.227,0.2323,0.235,0.2352,0.2369,0.237,0.2371,0.2411,0.2411,0.2412,0.2413,0.2459,0.246,0.2461,0.2455,0,0,0.2465,0.2465,0,0,0,0,0,0,0,0,0.23,0.2304,0.2345,0.2348,0.2351,0.2385,0.2368,0.2399,0.2411,0.2389,0.2412,0.2413,0.2434,0.2437,0.2444,0.2457,0.2459,0.2465,0.2466,0.2466,0.2466,0,0,0,0,0,0,0,0.2297,0.2302,0.2341,0.2346,0.2349,0.2359,0.2365,0.2374,0.2407,0.2391,0.2394,0.2399,0.2436,0.2443,0.2446,0.246,0.2465,0.2466,0.2467,0.2467,0.247,0.247,0,0,0,0,0,0,0.2291,0.23,0.234,0.2343,0.2327,0.236,0.2366,0.2373,0.2407,0.2413,0.2398,0.24,0.2441,0.2444,0.2448,0.2443,0.2466,0.2467,0.2468,0.2471,0.247,0.247,0,0,0,0,0,0,0.229,0.2294,0.2338,0.2322,0.2328,0.236,0.2368,0.2374,0.2382,0.2412,0.2418,0.24,0.2441,0.2446,0.2453,0.2445,0.2468,0.2469,0.2472,0.2471,0.247,0.2433,0,0,0,0,0,0,0.2288,0.2294,0.2291,0.2322,0.2329,0.2342,0.2368,0.2374,0.2384,0.2387,0.2415,0.2421,0.2442,0.2451,0.2454,0.2447,0.247,0.2473,0.2471,0.247,0.2435,0.2431,0.2427,0,0,0,0,0,0.2286,0.2279,0.2291,0.2296,0.2327,0.2342,0.2346,0.2371,0.2383,0.2381,0.2401,0.242,0.2446,0.2451,0.2455,0.2448,0.2473,0.2472,0.247,0.2437,0.2432,0.2427,0,0,0,0,0,0,0.2246,0.2283,0.2297,0.2299,0.2317,0.2348,0.2347,0.2365,0.2379,0.2382,0.2412,0.2418,0.2422,0.2436,0.2442,0.2445,0.2462,0.2461,0.2435,0.2431,0.2427,0.2423,0.2471,0,0,0,0,0,0.2237,0.2246,0.2278,0.2277,0.2285,0.2315,0.2322,0.234,0.2359,0.2367,0.2387,0.2405,0.2418,0.2425,0.2438,0.2438,0.2445,0.2435,0.2431,0.2428,0.2427,0.2428,0.2425,0.2465,0.2465,0.2465,0,0,0.2219,0.2241,0.2244,0.227,0.2286,0.2294,0.232,0.2328,0.2335,0.2368,0.2376,0.2392,0.2414,0.2418,0.242,0.243,0.2418,0.2426,0.2423,0.2424,0.2427,0.2423,0.2419,0.2464,0.2464,0.2464,0,0,0.2191,0.2208,0.221,0.2225,0.225,0.2269,0.227,0.2299,0.2311,0.2319,0.2345,0.2353,0.2374,0.2389,0.2399,0.2379,0.2397,0.2382,0.2361,0.2363,0.236,0.2357,0.235,0.2347,0.2381,0.2381,0.2381,0,0.2166,0.218,0.2208,0.2215,0.2225,0.2256,0.2258,0.2272,0.2299,0.2305,0.2316,0.2343,0.236,0.2368,0.2363,0.237,0.2372,0.2378,0.2358,0.2355,0.2353,0.2347,0.2344,0.2379,0.2379,0.2379,0.238,0,0.2148,0.2157,0.2156,0.2181,0.2192,0.2196,0.2225,0.2232,0.225,0.2268,0.2277,0.2299,0.2318,0.2321,0.2338,0.2332,0.2337,0.2352,0.237,0.2347,0.2341,0.2339,0.2376,0.2377,0.2377,0.2378,0,0,0.2094,0.2136,0.2135,0.2148,0.2177,0.2185,0.2191,0.221,0.2216,0.2234,0.2239,0.2257,0.2272,0.2283,0.2303,0.2304,0.2287,0.2319,0.232,0.2312,0.2281,0.2269,0.2266,0.2299,0.2299,0.2299,0.228,0,0.207,0.2083,0.2109,0.2113,0.2122,0.2153,0.2159,0.2177,0.2196,0.2206,0.2227,0.2238,0.2257,0.2264,0.2267,0.2288,0.2281,0.229,0.2305,0.2305,0.2298,0.2263,0.225,0.223,0.2278,0.2277,0.2277,0,0.2044,0.2061,0.2066,0.2096,0.2101,0.2105,0.2125,0.2135,0.2157,0.2171,0.2185,0.2206,0.2215,0.2232,0.2244,0.225,0.2258,0.2269,0.2269,0.2271,0.2289,0.2263,0.2225,0.2222,0.2274,0.2274,0.2274,0,0.2004,0.2028,0.2034,0.2044,0.2079,0.2082,0.2097,0.212,0.213,0.2147,0.2154,0.2172,0.2182,0.2196,0.2222,0.2232,0.2231,0.225,0.2242,0.2242,0.224,0.2239,0.2202,0.2246,0.2246,0.2246,0.2246,0,0.1974,0.1976,0.2017,0.2021,0.2024,0.2055,0.2057,0.2075,0.2096,0.2104,0.2132,0.2139,0.2173,0.2185,0.2205,0.2213,0.2217,0.2228,0.2233,0.2225,0.2223,0.223,0.2231,0.2245,0.2246,0.2246,0.2246,0,0.1929,0.1957,0.1966,0.1999,0.2008,0.2009,0.2037,0.2042,0.2063,0.2073,0.2077,0.2109,0.2124,0.2152,0.2174,0.2188,0.2191,0.2201,0.2183,0.2186,0.2177,0.2177,0.2141,0.2138,0.2185,0.2184,0.2184,0,0.1908,0.1911,0.1944,0.1952,0.1966,0.1978,0.1988,0.2019,0.2029,0.2056,0.2058,0.2075,0.209,0.2113,0.2138,0.2156,0.2166,0.2152,0.2168,0.216,0.2165,0.2164,0.2165,0.2148,0.2147,0.2147,0.2146,0,0.1868,0.1882,0.1896,0.1915,0.1927,0.1943,0.1961,0.1966,0.2001,0.2011,0.2027,0.2038,0.2062,0.2079,0.2101,0.2117,0.2137,0.2141,0.214,0.2131,0.2121,0.2126,0.2172,0.2141,0.2142,0.2142,0.2143,0.2143,0.1834,0.1838,0.1863,0.1878,0.1895,0.1911,0.1918,0.194,0.1953,0.1975,0.1993,0.2007,0.2031,0.2063,0.2077,0.2089,0.2099,0.2098,0.2097,0.2096,0.2093,0.212,0.2094,0.2094,0.2094,0.2094,0.2094,0,0.1795,0.1813,0.1826,0.1851,0.1863,0.1882,0.1904,0.1913,0.1925,0.1946,0.1961,0.1979,0.1996,0.2024,0.2043,0.2047,0.2057,0.2051,0.2051,0.2054,0.2083,0.2082,0.2043,0.2043,0.2043,0.2043,0.2043,0.2043,0.1776,0.1783,0.18,0.1817,0.1835,0.1849,0.186,0.1876,0.1892,0.1912,0.1926,0.1944,0.1968,0.199,0.2006,0.2014,0.202,0.201,0.2021,0.2047,0.2052,0.2057,0.2055,0.2012,0.2011,0.1991,0.1991,0.1991]},{"header":{"parameterUnit":"m.s-1","parameterCategory":1,"la1":30.2991,"la2":30.254,"lo1":-89.0895,"lo2":-89.0444,"dy":0.0017,"dx":0.0017,"nx":28,"ny":28,"refTime":"2024-09-02T09:00:00:Z","depth":0,"parameterNumber":3,"parameterNumberName":"V-component_of_WINDS"},"data":[0,0,0,0,0,0,0,0,0,0,0,0,0,0,0,0,0,0,0,0,0,0,0,0,0,0,0,0,0,0,0,0,0,0,0,0,0,0,0,0,0,0,0,0,0,0,0,0,0,0,0,0,0,0,0,0,0,0,-3.4001,-3.4002,0,-3.4127,-3.4129,-3.413,-3.4118,-3.4116,-3.4114,-3.4112,-3.4239,-3.4244,-3.4249,0,0,0,0,0,0,0,0,0,0,0,0,0,-3.3745,-3.375,-3.4001,-3.4002,-3.4004,-3.4127,-3.4129,-3.4131,-3.4118,-3.4116,-3.4113,-3.4111,-3.4237,-3.4243,-3.4249,0,0,0,0,0,0,0,0,0,0,0,0,0,-3.3863,-3.3752,-3.4,-3.4012,-3.4015,-3.4127,-3.4129,-3.4131,-3.4119,-3.4116,-3.4113,-3.411,-3.4235,-3.4242,-3.425,-3.4357,0,0,-3.4274,-3.4277,0,0,0,0,0,0,0,0,-3.3856,-3.3872,-3.4009,-3.4012,-3.4015,-3.4104,-3.4085,-3.4207,-3.4119,-3.4079,-3.4112,-3.4108,-3.4196,-3.4207,-3.4237,-3.4363,-3.4369,-3.4275,-3.4279,-3.4283,-3.4285,0,0,0,0,0,0,0,-3.3848,-3.3866,-3.4051,-3.4011,-3.4015,-3.4011,-3.4024,-3.4108,-3.4152,-3.4082,-3.4082,-3.4097,-3.4197,-3.4229,-3.424,-3.4371,-3.4274,-3.4281,-3.4286,-3.4289,-3.4592,-3.4595,0,0,0,0,0,0,-3.3837,-3.386,-3.4047,-3.4054,-3.3927,-3.4018,-3.4033,-3.4078,-3.4151,-3.416,-3.4099,-3.4096,-3.4217,-3.4231,-3.4244,-3.4375,-3.4283,-3.429,-3.4294,-3.4588,-3.4592,-3.4596,0,0,0,0,0,0,-3.3832,-3.3854,-3.4042,-3.3957,-3.3981,-3.4025,-3.4076,-3.4082,-3.4115,-3.4164,-3.4172,-3.4125,-3.4216,-3.4233,-3.433,-3.4379,-3.4293,-3.4301,-3.4584,-3.459,-3.4594,-3.4636,0,0,0,0,0,0,-3.3825,-3.3852,-3.3894,-3.3958,-3.3985,-3.4126,-3.4079,-3.4087,-3.4129,-3.4125,-3.419,-3.4198,-3.4215,-3.4318,-3.4337,-3.4388,-3.4307,-3.458,-3.4587,-3.4593,-3.4631,-3.4642,-3.4652,0,0,0,0,0,-3.3815,-3.39,-3.3896,-3.3919,-3.4038,-3.4129,-3.4144,-3.4162,-3.4133,-3.4175,-3.4207,-3.4196,-3.4371,-3.4328,-3.435,-3.4403,-3.4577,-3.4585,-3.4592,-3.4626,-3.464,-3.4652,0,0,0,0,0,0,-3.3839,-3.3908,-3.3905,-3.4013,-3.4065,-3.4126,-3.418,-3.4176,-3.4237,-3.4232,-3.4251,-3.4266,-3.4363,-3.4393,-3.4344,-3.4511,-3.447,-3.4482,-3.4488,-3.4502,-3.4512,-3.4503,-3.4313,0,0,0,0,0,-3.3857,-3.3925,-3.3982,-3.4071,-3.4098,-3.4135,-3.4174,-3.4184,-3.4239,-3.426,-3.4299,-3.4352,-3.4418,-3.4462,-3.4526,-3.4635,-3.4649,-3.4683,-3.4694,-3.4702,-3.4712,-3.4773,-3.4788,-3.4621,-3.4621,-3.4621,0,0,-3.3894,-3.394,-3.3982,-3.4077,-3.4119,-3.4189,-3.4153,-3.4228,-3.428,-3.4271,-3.4365,-3.4396,-3.4455,-3.4559,-3.4607,-3.4587,-3.4762,-3.4712,-3.4718,-3.4724,-3.4782,-3.4798,-3.4812,-3.4626,-3.4625,-3.4624,0,0,-3.3997,-3.404,-3.4119,-3.4162,-3.4226,-3.425,-3.4269,-3.4332,-3.4352,-3.4447,-3.4442,-3.4503,-3.4618,-3.4661,-3.4697,-3.4819,-3.4811,-3.4839,-3.4894,-3.4953,-3.4966,-3.4978,-3.5021,-3.5036,-3.4849,-3.4849,-3.4849,0,-3.4035,-3.414,-3.416,-3.4236,-3.4278,-3.4276,-3.4356,-3.4396,-3.4478,-3.4506,-3.4484,-3.4628,-3.4668,-3.4782,-3.4811,-3.4841,-3.4863,-3.4831,-3.4963,-3.4975,-3.4986,-3.5027,-3.5043,-3.4852,-3.4852,-3.4851,-3.4851,0,-3.4184,-3.4257,-3.4314,-3.4394,-3.4442,-3.452,-3.4551,-3.4597,-3.4603,-3.4629,-3.4726,-3.4774,-3.4848,-3.4876,-3.4882,-3.4991,-3.4977,-3.4958,-3.4917,-3.5004,-3.5043,-3.5059,-3.4856,-3.4855,-3.4854,-3.4854,0,0,-3.4304,-3.4395,-3.4415,-3.4452,-3.4523,-3.458,-3.4657,-3.4731,-3.4771,-3.4827,-3.4892,-3.499,-3.4974,-3.5016,-3.5026,-3.5078,-3.5171,-3.5053,-3.5055,-3.5073,-3.5294,-3.5307,-3.5325,-3.5167,-3.517,-3.5172,-3.5288,0,-3.4414,-3.4553,-3.4573,-3.4695,-3.4763,-3.4762,-3.483,-3.4881,-3.4908,-3.4968,-3.4998,-3.5067,-3.504,-3.5065,-3.5116,-3.5149,-3.5215,-3.5141,-3.5227,-3.523,-3.5211,-3.5345,-3.5359,-3.5466,-3.5304,-3.5306,-3.5308,0,-3.4561,-3.4623,-3.4752,-3.4814,-3.4844,-3.4904,-3.4974,-3.5032,-3.509,-3.5106,-3.5153,-3.5158,-3.5238,-3.5194,-3.5305,-3.5253,-3.529,-3.5311,-3.5316,-3.5324,-3.5274,-3.5356,-3.5501,-3.5517,-3.5333,-3.5331,-3.5329,0,-3.4635,-3.4751,-3.4843,-3.4874,-3.495,-3.4992,-3.5026,-3.508,-3.5124,-3.5184,-3.5212,-3.5281,-3.5319,-3.5371,-3.5395,-3.536,-3.5504,-3.5461,-3.5518,-3.5518,-3.5548,-3.5545,-3.57,-3.5572,-3.5572,-3.5572,-3.5571,0,-3.4755,-3.4834,-3.4878,-3.4934,-3.5023,-3.5046,-3.5132,-3.5164,-3.5213,-3.5275,-3.5279,-3.5337,-3.5364,-3.5427,-3.5445,-3.5534,-3.5551,-3.5565,-3.5569,-3.5565,-3.5563,-3.5588,-3.5581,-3.5576,-3.5575,-3.5574,-3.5574,0,-3.4853,-3.4885,-3.4986,-3.505,-3.5067,-3.513,-3.5184,-3.5239,-3.5266,-3.5345,-3.5365,-3.5407,-3.548,-3.5509,-3.5599,-3.5611,-3.5714,-3.5712,-3.5694,-3.5695,-3.5751,-3.5745,-3.5926,-3.5951,-3.5808,-3.5809,-3.581,0,-3.4927,-3.4988,-3.5059,-3.5102,-3.5137,-3.5205,-3.525,-3.5275,-3.5321,-3.5392,-3.5438,-3.5512,-3.5572,-3.569,-3.5728,-3.5797,-3.5796,-3.5856,-3.5807,-3.5801,-3.5797,-3.5793,-3.5799,-3.5864,-3.5865,-3.5867,-3.5868,0,-3.5055,-3.5069,-3.5133,-3.5204,-3.5258,-3.5315,-3.537,-3.5404,-3.5437,-3.5489,-3.5566,-3.5613,-3.5705,-3.5778,-3.585,-3.5883,-3.5881,-3.5883,-3.59,-3.5895,-3.5883,-3.589,-3.5718,-3.5878,-3.5877,-3.5876,-3.5876,-3.5875,-3.5143,-3.5198,-3.5256,-3.5329,-3.5373,-3.5425,-3.548,-3.5514,-3.5579,-3.5657,-3.5668,-3.5749,-3.5806,-3.5901,-3.5938,-3.6001,-3.5986,-3.601,-3.6016,-3.6022,-3.6025,-3.5874,-3.6014,-3.6014,-3.6014,-3.6014,-3.6014,0,-3.5271,-3.531,-3.5376,-3.5454,-3.5511,-3.5506,-3.5567,-3.5614,-3.5686,-3.574,-3.58,-3.5888,-3.5959,-3.6003,-3.6075,-3.6117,-3.6118,-3.6135,-3.6132,-3.614,-3.6035,-3.6014,-3.6134,-3.6134,-3.6133,-3.6133,-3.6133,-3.6133,-3.5345,-3.5437,-3.5457,-3.5571,-3.5608,-3.5689,-3.5725,-3.5772,-3.5815,-3.5914,-3.5974,-3.6002,-3.6052,-3.6128,-3.6193,-3.6204,-3.623,-3.6248,-3.6258,-3.616,-3.6147,-3.6135,-3.6115,-3.6254,-3.6254,-3.6357,-3.6358,-3.6359]}]]